Weather History for KGSH - July, 2014

Change the Weather History Date:

Friday, July 4, 2014

  Actual Average Record
Temperature  
Mean Temperature 64 °F -  
Max Temperature 79 °F 82 °F 102 °F (2012)
Min Temperature 51 °F 62 °F 48 °F (1963)
Degree Days  
Heating Degree Days 1    
Growing Degree Days 14 (Base 50)    
Moisture  
Dew Point 49 °F    
Average Humidity 59    
Maximum Humidity 92    
Minimum Humidity 32    
Precipitation  
Precipitation 0.00 in - - ()
Sea Level Pressure  
Sea Level Pressure 30.27 in    
Wind  
Wind Speed 2 mph (North)    
Max Wind Speed 9 mph    
Max Gust Speed -    
Visibility 10 miles    
Events      
Averages and records for this station are not official NWS values.
T = Trace of Precipitation, MM = Missing Value Source: NWS Daily Summary

Daily Weather History Graph

Daily Weather History Graph

Search for Another Location

Airport or City:

Trip Planner

Search our weather history database for the weather conditions in past years. The results will help you decide how hot, cold, wet, or windy it might be!

Date:

Astronomy

Jul. 04, 2014 Rise Set
Actual Time 6:14 AM EDT 9:20 PM EDT
Civil Twilight 5:40 AM EDT 9:53 PM EDT
Nautical Twilight 4:57 AM EDT 10:37 PM EDT
Astronomical Twilight 4:06 AM EDT 11:27 PM EDT
Moon 1:15 PM EDT (7/4) 12:37 AM EDT (7/4)
Length of Visible Light 16h 13m
Length of Day
15h 05m
Waxing Crescent, 42% of the Moon is Illuminated
Jul 4
Waxing Crescent
Jul 5
First Quarter
Jul 12
Full
Jul 18
Last Quarter
Jul 26
New

Hourly Weather History & Observations

Time (EDT) Temp. Dew Point Humidity Pressure Visibility Wind Dir Wind Speed Gust Speed Precip Events Conditions
12:53 AM 55.0 °F 50.0 °F 83% 30.20 in 10.0 mi Calm Calm - N/A   Clear
1:53 AM 53.1 °F 48.9 °F 86% 30.20 in 10.0 mi Calm Calm - N/A   Clear
2:53 AM 53.1 °F 48.9 °F 86% 30.20 in 10.0 mi Calm Calm - N/A   Clear
3:53 AM 52.0 °F 48.9 °F 89% 30.21 in 10.0 mi Calm Calm - N/A   Clear
4:53 AM 52.0 °F 48.0 °F 86% 30.22 in 10.0 mi Calm Calm - N/A   Clear
5:53 AM 51.1 °F 48.9 °F 92% 30.25 in 9.0 mi Calm Calm - N/A   Clear
6:53 AM 51.1 °F 48.9 °F 92% 30.26 in 9.0 mi WSW 3.5 mph - N/A   Clear
7:53 AM 57.9 °F 53.1 °F 84% 30.28 in 10.0 mi Calm Calm - N/A   Clear
8:53 AM 64.9 °F 50.0 °F 58% 30.30 in 10.0 mi North 4.6 mph - N/A   Clear
9:53 AM 68.0 °F 46.9 °F 47% 30.31 in 10.0 mi North 5.8 mph - N/A   Clear
10:53 AM 71.1 °F 45.0 °F 39% 30.30 in 10.0 mi NNE 4.6 mph - N/A   Clear
11:53 AM 73.9 °F 46.0 °F 37% 30.31 in 10.0 mi NNE 8.1 mph - N/A   Clear
12:53 PM 75.0 °F 46.9 °F 37% 30.30 in 10.0 mi North 9.2 mph - N/A   Clear
1:53 PM 75.9 °F 46.0 °F 35% 30.30 in 10.0 mi ENE 8.1 mph - N/A   Clear
2:53 PM 75.9 °F 46.9 °F 36% 30.29 in 10.0 mi North - - N/A   Scattered Clouds
3:53 PM 77.0 °F 45.0 °F 32% 30.29 in 10.0 mi North 5.8 mph - N/A   Clear
4:53 PM 77.0 °F 46.9 °F 34% 30.28 in 10.0 mi Variable 6.9 mph - N/A   Scattered Clouds
5:53 PM 77.0 °F 46.9 °F 34% 30.27 in 10.0 mi NNW 3.5 mph - N/A   Partly Cloudy
6:53 PM 75.9 °F 46.9 °F 36% 30.27 in 10.0 mi North 8.1 mph - N/A   Clear
7:53 PM 75.0 °F 46.9 °F 37% 30.28 in 10.0 mi North 4.6 mph - N/A   Clear
8:53 PM 72.0 °F 52.0 °F 49% 30.27 in 10.0 mi ENE 4.6 mph - N/A   Clear
9:53 PM 66.0 °F 55.0 °F 68% 30.28 in 10.0 mi South 3.5 mph - N/A   Clear
10:53 PM 64.0 °F 53.1 °F 67% 30.30 in 9.0 mi Calm Calm - N/A   Clear
11:53 PM 61.0 °F 54.0 °F 78% 30.30 in 10.0 mi Calm Calm - N/A   Clear